• In Belarus
  • List of Countries
  • For 7 days
  • Water Temperature
  • Satellite Maps
  • Weather Map
  • Weather Widgets
  • user-avatar
    Login

    Hourly Weather Korfu

    Today, 20 September, Thursday

    Time Temperature Precipitation Wind Pressure Humidity
    00:00 +24°C° 0 mm 1 mps 760 mmHg 64%
    01:00 +24°C° 0 mm 1 mps 760 mmHg 64%
    02:00 +24°C° 0 mm 1 mps 760 mmHg 63%
    03:00 +23°C° 0 mm 1 mps 760 mmHg 63%
    04:00 +23°C° 0 mm 2 mps 759 mmHg 63%
    05:00 +24°C° 0 mm 2 mps 760 mmHg 61%
    06:00 +24°C° 0 mm 2 mps 760 mmHg 59%
    07:00 +25°C° 0 mm 2 mps 760 mmHg 57%
    08:00 +27°C° 0 mm 2 mps 760 mmHg 52%
    09:00 +29°C° 0 mm 2 mps 760 mmHg 46%
    10:00 +31°C° 0 mm 2 mps 760 mmHg 41%
    11:00 +32°C° 0 mm 2 mps 760 mmHg 40%
    12:00 +32°C° 0 mm 2 mps 759 mmHg 40%
    13:00 +32°C° 0 mm 2 mps 759 mmHg 40%
    14:00 +32°C° 0 mm 2 mps 759 mmHg 44%
    15:00 +31°C° 0 mm 2 mps 759 mmHg 48%
    16:00 +30°C° 0 mm 2 mps 758 mmHg 52%
    17:00 +29°C° 0 mm 2 mps 759 mmHg 60%
    18:00 +27°C° 0 mm 1 mps 759 mmHg 67%
    19:00 +26°C° 0 mm 1 mps 759 mmHg 75%
    20:00 +25°C° 0 mm 1 mps 759 mmHg 75%
    21:00 +25°C° 0 mm 1 mps 759 mmHg 75%
    22:00 +25°C° 0 mm 1 mps 759 mmHg 75%
    23:00 +24°C° 0 mm 1 mps 759 mmHg 73%

    Tomorrow, 21 September, Friday

    Time Temperature Precipitation Wind Pressure Humidity
    00:00 +24°C° 0 mm 1 mps 759 mmHg 71%
    01:00 +24°C° 0 mm 1 mps 759 mmHg 70%
    02:00 +23°C° 0 mm 1 mps 759 mmHg 69%
    03:00 +23°C° 0 mm 1 mps 759 mmHg 68%
    04:00 +23°C° 0 mm 1 mps 759 mmHg 67%
    05:00 +24°C° 0 mm 1 mps 759 mmHg 63%
    06:00 +24°C° 0 mm 1 mps 759 mmHg 59%
    07:00 +25°C° 0 mm 1 mps 759 mmHg 55%
    08:00 +27°C° 0 mm 1 mps 759 mmHg 51%
    09:00 +29°C° 0 mm 1 mps 759 mmHg 46%
    10:00 +31°C° 0 mm 1 mps 760 mmHg 42%
    11:00 +31°C° 0 mm 1 mps 759 mmHg 42%
    12:00 +32°C° 0 mm 2 mps 759 mmHg 42%
    13:00 +32°C° 0 mm 2 mps 759 mmHg 42%
    14:00 +31°C° 0 mm 2 mps 759 mmHg 46%
    15:00 +31°C° 0 mm 2 mps 758 mmHg 51%
    16:00 +30°C° 0 mm 2 mps 758 mmHg 55%
    17:00 +28°C° 0 mm 2 mps 759 mmHg 63%
    18:00 +27°C° 0 mm 2 mps 759 mmHg 70%
    19:00 +25°C° 0 mm 2 mps 759 mmHg 78%
    20:00 +25°C° 0 mm 2 mps 759 mmHg 78%
    21:00 +25°C° 0 mm 2 mps 760 mmHg 79%
    22:00 +24°C° 0 mm 1 mps 760 mmHg 79%
    23:00 +24°C° 0 mm 1 mps 760 mmHg 79%

    Day after tomorrow, 22 September, Saturday

    Time Temperature Precipitation Wind Pressure Humidity
    00:00 +24°C° 0 mm 1 mps 760 mmHg 78%
    01:00 +24°C° 0 mm 1 mps 760 mmHg 77%
    02:00 +23°C° 0 mm 2 mps 760 mmHg 76%
    03:00 +23°C° 0 mm 2 mps 760 mmHg 76%
    04:00 +23°C° 0 mm 2 mps 760 mmHg 75%
    05:00 +24°C° 0 mm 2 mps 760 mmHg 70%
    06:00 +25°C° 0 mm 2 mps 760 mmHg 66%
    07:00 +25°C° 0 mm 2 mps 760 mmHg 62%
    08:00 +27°C° 0 mm 2 mps 760 mmHg 56%
    09:00 +29°C° 0 mm 2 mps 760 mmHg 50%
    10:00 +31°C° 0 mm 2 mps 760 mmHg 44%
    11:00 +33°C° 0 mm 3 mps 760 mmHg 43%
    12:00 +33°C° 0 mm 3 mps 760 mmHg 42%
    13:00 +34°C° 0 mm 4 mps 760 mmHg 41%
    14:00 +33°C° 0 mm 4 mps 759 mmHg 44%
    15:00 +33°C° 0 mm 4 mps 759 mmHg 46%
    16:00 +32°C° 0 mm 4 mps 759 mmHg 49%
    17:00 +29°C° 0 mm 4 mps 759 mmHg 56%
    18:00 +28°C° 0 mm 4 mps 760 mmHg 63%
    19:00 +26°C° 0 mm 4 mps 760 mmHg 69%
    20:00 +26°C° 0 mm 4 mps 760 mmHg 70%
    21:00 +25°C° 0 mm 3 mps 761 mmHg 71%
    22:00 +25°C° 0 mm 3 mps 761 mmHg 72%
    23:00 +25°C° 0 mm 3 mps 761 mmHg 71%

    23 September, Sunday

    Time Temperature Precipitation Wind Pressure Humidity
    00:00 +24°C° 0 mm 3 mps 761 mmHg 71%
    01:00 +24°C° 0 mm 3 mps 760 mmHg 71%
    02:00 +24°C° 0 mm 3 mps 760 mmHg 70%
    03:00 +24°C° 0 mm 3 mps 760 mmHg 69%
    04:00 +22°C° 0 mm 4 mps 760 mmHg 68%
    05:00 +24°C° 0 mm 3 mps 760 mmHg 65%
    06:00 +25°C° 0 mm 3 mps 760 mmHg 61%
    07:00 +26°C° 0 mm 3 mps 760 mmHg 58%
    08:00 +28°C° 0 mm 3 mps 761 mmHg 51%
    09:00 +31°C° 0 mm 3 mps 761 mmHg 45%
    10:00 +34°C° 0 mm 3 mps 761 mmHg 39%
    11:00 +34°C° 0 mm 3 mps 760 mmHg 37%
    12:00 +35°C° 0 mm 3 mps 760 mmHg 36%
    13:00 +35°C° 0 mm 4 mps 760 mmHg 35%
    14:00 +35°C° 0 mm 4 mps 760 mmHg 37%
    15:00 +34°C° 0 mm 4 mps 760 mmHg 39%
    16:00 +33°C° 0 mm 4 mps 759 mmHg 42%
    17:00 +31°C° 0 mm 3 mps 760 mmHg 48%
    18:00 +29°C° 0 mm 3 mps 760 mmHg 54%
    19:00 +27°C° 0 mm 3 mps 760 mmHg 60%
    20:00 +27°C° 0 mm 2 mps 760 mmHg 61%
    21:00 +26°C° 0 mm 2 mps 760 mmHg 62%
    22:00 +26°C° 0 mm 2 mps 760 mmHg 63%
    23:00 +25°C° 0 mm 2 mps 760 mmHg 64%

    24 September, Monday

    Time Temperature Precipitation Wind Pressure Humidity
    00:00 +25°C° 0 mm 2 mps 759 mmHg 65%
    01:00 +25°C° 0 mm 2 mps 759 mmHg 67%
    02:00 +24°C° 0 mm 1 mps 759 mmHg 68%
    03:00 +24°C° 0 mm 1 mps 758 mmHg 69%
    04:00 +23°C° 0 mm 1 mps 758 mmHg 70%
    05:00 +24°C° 0 mm 1 mps 758 mmHg 67%
    06:00 +25°C° 0 mm 2 mps 758 mmHg 64%
    07:00 +26°C° 0 mm 2 mps 757 mmHg 61%
    08:00 +27°C° 0 mm 2 mps 757 mmHg 55%
    09:00 +29°C° 0 mm 3 mps 757 mmHg 48%
    10:00 +31°C° 0 mm 3 mps 757 mmHg 42%
    11:00 +31°C° 0 mm 3 mps 757 mmHg 42%
    12:00 +31°C° 0 mm 3 mps 756 mmHg 41%
    13:00 +33°C° 0 mm 3 mps 756 mmHg 40%
    14:00 +31°C° 0 mm 3 mps 756 mmHg 43%
    15:00 +31°C° 0 mm 3 mps 755 mmHg 46%
    16:00 +30°C° 0 mm 3 mps 755 mmHg 49%
    17:00 +28°C° 0 mm 3 mps 755 mmHg 58%
    18:00 +27°C° 0 mm 2 mps 755 mmHg 68%
    19:00 +25°C° 0 mm 2 mps 755 mmHg 77%
    20:00 +25°C° 0 mm 2 mps 755 mmHg 79%
    21:00 +24°C° 0 mm 2 mps 756 mmHg 81%
    22:00 +24°C° 0 mm 2 mps 756 mmHg 83%
    23:00 +24°C° 0 mm 2 mps 756 mmHg 82%

    25 September, Tuesday

    Time Temperature Precipitation Wind Pressure Humidity
    00:00 +23°C° 0 mm 2 mps 756 mmHg 81%
    01:00 +23°C° 0 mm 2 mps 756 mmHg 80%
    02:00 +23°C° 0 mm 2 mps 756 mmHg 78%
    03:00 +23°C° 0 mm 2 mps 756 mmHg 77%
    04:00 +21°C° 0 mm 2 mps 756 mmHg 75%
    05:00 +23°C° 0.1 mm 2 mps 757 mmHg 69%
    06:00 +23°C° 0.1 mm 2 mps 757 mmHg 64%
    07:00 +24°C° 0.1 mm 3 mps 757 mmHg 58%
    08:00 +25°C° 0.1 mm 4 mps 758 mmHg 52%
    09:00 +27°C° 0.1 mm 5 mps 758 mmHg 47%
    10:00 +28°C° 0.1 mm 6 mps 758 mmHg 41%
    11:00 +28°C° 0 mm 8 mps 758 mmHg 40%
    12:00 +29°C° 0 mm 9 mps 758 mmHg 39%
    13:00 +29°C° 0 mm 10 mps 758 mmHg 38%
    14:00 +29°C° 0 mm 10 mps 758 mmHg 39%
    15:00 +28°C° 0 mm 11 mps 757 mmHg 40%
    16:00 +28°C° 0 mm 11 mps 757 mmHg 40%
    17:00 +26°C° 0 mm 11 mps 758 mmHg 42%
    18:00 +24°C° 0 mm 12 mps 758 mmHg 43%
    19:00 +22°C° 0 mm 12 mps 758 mmHg 45%
    20:00 +21°C° 0 mm 12 mps 759 mmHg 47%
    21:00 +19°C° 0 mm 11 mps 759 mmHg 48%
    22:00 +18°C° 0 mm 11 mps 759 mmHg 50%
    23:00 +17°C° 0 mm 11 mps 760 mmHg 49%
    Show more